Location: ??????
(41.3747°N, 22.5491°E)
Time: 15:55:53
(UTC+00:00)

CZ-4C R/B - Pass Details

Date: 01 December 2020
Orbit: 407 x 489 km, 97.7° (Epoch: 20 January)

Event Time Altitude Azimuth Distance (km) Brightness Sun altitude
Rises 15:33:54 0° 9° (N) 2,578 6.4 -6.3°
Reaches altitude 10° 15:35:59 10° 8° (N) 1,691 5.5 -6.7°
Maximum altitude 15:39:36 70° 285° (WNW) 525 3.4 -7.3°
Drops below altitude 10° 15:43:10 10° 201° (SSW) 1,660 6.4 -8.0°
Sets 15:45:13 0° 199° (SSW) 2,525 7.4 -8.3°
